Year,Month,Day,Hour,Minute,Value (Times are PST for temperature in C)
2006,11,29,00,00,-5.90
2006,11,29,00,01,-5.90
2006,11,29,00,02,-5.90
2006,11,29,00,03,-5.80
2006,11,29,00,04,-5.80
2006,11,29,00,05,-5.80
2006,11,29,00,06,-5.80
2006,11,29,00,07,-5.80
2006,11,29,00,08,-5.80
2006,11,29,00,09,-5.80
2006,11,29,00,10,-5.80
2006,11,29,00,11,-5.80
2006,11,29,00,12,-5.80
2006,11,29,00,13,-5.80
2006,11,29,00,14,-5.80
2006,11,29,00,15,-5.80
2006,11,29,00,16,-5.80
2006,11,29,00,17,-5.80
2006,11,29,00,18,-5.90
2006,11,29,00,19,-5.90
2006,11,29,00,20,-5.90
2006,11,29,00,21,-5.90
2006,11,29,00,22,-5.90
2006,11,29,00,23,-5.90
2006,11,29,00,24,-5.90
2006,11,29,00,25,-5.90
2006,11,29,00,26,-5.90
2006,11,29,00,27,-5.90
2006,11,29,00,28,-5.90
2006,11,29,00,29,-5.90
2006,11,29,00,30,-5.80
2006,11,29,00,31,-5.80
2006,11,29,00,32,-5.80
2006,11,29,00,33,-5.80
2006,11,29,00,34,-5.80
2006,11,29,00,35,-5.80
2006,11,29,00,36,-5.80
2006,11,29,00,37,-5.80
2006,11,29,00,38,-5.80
2006,11,29,00,39,-5.80
2006,11,29,00,40,-5.80
2006,11,29,00,41,-5.90
2006,11,29,00,42,-5.90
2006,11,29,00,43,-5.90
2006,11,29,00,44,-5.90
2006,11,29,00,45,-5.90
2006,11,29,00,46,-5.90
2006,11,29,00,47,-5.90
2006,11,29,00,48,-5.90
2006,11,29,00,49,-5.90
2006,11,29,00,50,-5.90
2006,11,29,00,51,-5.90
2006,11,29,00,52,-5.90
2006,11,29,00,53,-5.90
2006,11,29,00,54,-5.90
2006,11,29,00,55,-5.90
2006,11,29,00,56,-5.90
2006,11,29,00,57,-5.80
2006,11,29,00,58,-5.80
2006,11,29,00,59,-5.80
2006,11,29,01,00,-5.80
2006,11,29,01,01,-5.80
2006,11,29,01,02,-5.70
2006,11,29,01,03,-5.70
2006,11,29,01,04,-5.70
2006,11,29,01,05,-5.60
2006,11,29,01,06,-5.60
2006,11,29,01,07,-5.60
2006,11,29,01,08,-5.60
2006,11,29,01,09,-5.60
2006,11,29,01,10,-5.60
2006,11,29,01,11,-5.60
2006,11,29,01,12,-5.60
2006,11,29,01,13,-5.60
2006,11,29,01,14,-5.60
2006,11,29,01,15,-5.60
2006,11,29,01,16,-5.60
2006,11,29,01,17,-5.70
2006,11,29,01,18,-5.70
2006,11,29,01,19,-5.70
2006,11,29,01,20,-5.80
2006,11,29,01,21,-5.80
2006,11,29,01,22,-5.80
2006,11,29,01,23,-5.80
2006,11,29,01,24,-5.80
2006,11,29,01,25,-5.80
2006,11,29,01,26,-5.80
2006,11,29,01,27,-5.80
2006,11,29,01,28,-5.90
2006,11,29,01,29,-5.90
2006,11,29,01,30,-5.90
2006,11,29,01,31,-5.90
2006,11,29,01,32,-5.90
2006,11,29,01,33,-5.90
2006,11,29,01,34,-5.90
2006,11,29,01,35,-6.00
2006,11,29,01,36,-6.10
2006,11,29,01,37,-6.10
2006,11,29,01,38,-6.10
2006,11,29,01,39,-6.10
2006,11,29,01,40,-6.10
2006,11,29,01,41,-6.10
2006,11,29,01,42,-6.10
2006,11,29,01,43,-6.10
2006,11,29,01,44,-6.10
2006,11,29,01,45,-6.10
2006,11,29,01,46,-6.10
2006,11,29,01,47,-6.10
2006,11,29,01,48,-6.10
2006,11,29,01,49,-6.10
2006,11,29,01,50,-6.10
2006,11,29,01,51,-6.10
2006,11,29,01,52,-6.10
2006,11,29,01,53,-6.10
2006,11,29,01,54,-6.10
2006,11,29,01,55,-6.10
2006,11,29,01,56,-6.10
2006,11,29,01,57,-6.10
2006,11,29,01,58,-6.10
2006,11,29,01,59,-6.10
2006,11,29,02,00,-6.20
2006,11,29,02,01,-6.20
2006,11,29,02,02,-6.20
2006,11,29,02,03,-6.20
2006,11,29,02,04,-6.20
2006,11,29,02,05,-6.20
2006,11,29,02,06,-6.20
2006,11,29,02,07,-6.30
2006,11,29,02,08,-6.30
2006,11,29,02,09,-6.30
2006,11,29,02,10,-6.30
2006,11,29,02,11,-6.30
2006,11,29,02,12,-6.30
2006,11,29,02,13,-6.30
2006,11,29,02,14,-6.30
2006,11,29,02,15,-6.30
2006,11,29,02,16,-6.20
2006,11,29,02,17,-6.20
2006,11,29,02,18,-6.20
2006,11,29,02,19,-6.20
2006,11,29,02,20,-6.20
2006,11,29,02,21,-6.10
2006,11,29,02,22,-6.10
2006,11,29,02,23,-6.10
2006,11,29,02,24,-6.10
2006,11,29,02,25,-6.20
2006,11,29,02,26,-6.20
2006,11,29,02,27,-6.20
2006,11,29,02,28,-6.10
2006,11,29,02,29,-6.10
2006,11,29,02,30,-6.10
2006,11,29,02,31,-6.10
2006,11,29,02,32,-6.10
2006,11,29,02,33,-6.10
2006,11,29,02,34,-6.10
2006,11,29,02,35,-6.10
2006,11,29,02,36,-6.10
2006,11,29,02,37,-6.10
2006,11,29,02,38,-6.10
2006,11,29,02,39,-6.10
2006,11,29,02,40,-6.10
2006,11,29,02,41,-6.10
2006,11,29,02,42,-6.10
2006,11,29,02,43,-6.10
2006,11,29,02,44,-6.10
2006,11,29,02,45,-6.10
2006,11,29,02,46,-6.10
2006,11,29,02,47,-6.10
2006,11,29,02,48,-6.10
2006,11,29,02,49,-6.10
2006,11,29,02,50,-6.10
2006,11,29,02,51,-6.10
2006,11,29,02,52,-6.10
2006,11,29,02,53,-6.10
2006,11,29,02,54,-6.10
2006,11,29,02,55,-6.10
2006,11,29,02,56,-6.10
2006,11,29,02,57,-6.10
2006,11,29,02,58,-6.10
2006,11,29,02,59,-6.10
2006,11,29,03,00,-6.10
2006,11,29,03,01,-6.10
2006,11,29,03,02,-6.10
2006,11,29,03,03,-6.10
2006,11,29,03,04,-6.10
2006,11,29,03,05,-6.10
2006,11,29,03,06,-6.10
2006,11,29,03,07,-6.10
2006,11,29,03,08,-6.10
2006,11,29,03,09,-6.10
2006,11,29,03,10,-6.10
2006,11,29,03,11,-6.10
2006,11,29,03,12,-6.10
2006,11,29,03,13,-6.10
2006,11,29,03,14,-6.10
2006,11,29,03,15,-6.10
2006,11,29,03,16,-6.10
2006,11,29,03,17,-6.10
2006,11,29,03,18,-6.10
2006,11,29,03,19,-6.10
2006,11,29,03,20,-6.10
2006,11,29,03,21,-6.10
2006,11,29,03,22,-6.10
2006,11,29,03,23,-6.10
2006,11,29,03,24,-6.10
2006,11,29,03,25,-6.10
2006,11,29,03,26,-6.10
2006,11,29,03,27,-6.10
2006,11,29,03,28,-6.10
2006,11,29,03,29,-6.10
2006,11,29,03,30,-6.10
2006,11,29,03,31,-6.10
2006,11,29,03,32,-6.10
2006,11,29,03,33,-6.10
2006,11,29,03,34,-6.10
2006,11,29,03,35,-6.10
2006,11,29,03,36,-6.10
2006,11,29,03,37,-6.10
2006,11,29,03,38,-6.10
2006,11,29,03,39,-6.00
2006,11,29,03,40,-5.90
2006,11,29,03,41,-5.90
2006,11,29,03,42,-5.90
2006,11,29,03,43,-5.90
2006,11,29,03,44,-5.90
2006,11,29,03,45,-5.90
2006,11,29,03,46,-5.90
2006,11,29,03,47,-5.90
2006,11,29,03,48,-5.80
2006,11,29,03,49,-5.80
2006,11,29,03,50,-5.80
2006,11,29,03,51,-5.80
2006,11,29,03,52,-5.80
2006,11,29,03,53,-5.80
2006,11,29,03,54,-5.70
2006,11,29,03,55,-5.70
2006,11,29,03,56,-5.70
2006,11,29,03,57,-5.70
2006,11,29,03,58,-5.70
2006,11,29,03,59,-5.70
2006,11,29,04,00,-5.70
2006,11,29,04,01,-5.70
2006,11,29,04,02,-5.70
2006,11,29,04,03,-5.70
2006,11,29,04,04,-5.70
2006,11,29,04,05,-5.70
2006,11,29,04,06,-5.70
2006,11,29,04,07,-5.70
2006,11,29,04,08,-5.70
2006,11,29,04,09,-5.60
2006,11,29,04,10,-5.60
2006,11,29,04,11,-5.60
2006,11,29,04,12,-5.60
2006,11,29,04,13,-5.60
2006,11,29,04,14,-5.60
2006,11,29,04,15,-5.60
2006,11,29,04,16,-5.60
2006,11,29,04,17,-5.60
2006,11,29,04,18,-5.60
2006,11,29,04,19,-5.60
2006,11,29,04,20,-5.50
2006,11,29,04,21,-5.50
2006,11,29,04,22,-5.50
2006,11,29,04,23,-5.50
2006,11,29,04,24,-5.50
2006,11,29,04,25,-5.50
2006,11,29,04,26,-5.50
2006,11,29,04,27,-5.50
2006,11,29,04,28,-5.50
2006,11,29,04,29,-5.50
2006,11,29,04,30,-5.50
2006,11,29,04,31,-5.50
2006,11,29,04,32,-5.40
2006,11,29,04,33,-5.40
2006,11,29,04,34,-5.40
2006,11,29,04,35,-5.40
2006,11,29,04,36,-5.40
2006,11,29,04,37,-5.40
2006,11,29,04,38,-5.40
2006,11,29,04,39,-5.40
2006,11,29,04,40,-5.30
2006,11,29,04,41,-5.30
2006,11,29,04,42,-5.30
2006,11,29,04,43,-5.30
2006,11,29,04,44,-5.30
2006,11,29,04,45,-5.30
2006,11,29,04,46,-5.30
2006,11,29,04,47,-5.30
2006,11,29,04,48,-5.30
2006,11,29,04,49,-5.30
2006,11,29,04,50,-5.30
2006,11,29,04,51,-5.30
2006,11,29,04,52,-5.30
2006,11,29,04,53,-5.30
2006,11,29,04,54,-5.30
2006,11,29,04,55,-5.30
2006,11,29,04,56,-5.30
2006,11,29,04,57,-5.30
2006,11,29,04,58,-5.30
2006,11,29,04,59,-5.30
2006,11,29,05,00,-5.30
2006,11,29,05,01,-5.30
2006,11,29,05,02,-5.30
2006,11,29,05,03,-5.20
2006,11,29,05,04,-5.20
2006,11,29,05,05,-5.20
2006,11,29,05,06,-5.20
2006,11,29,05,07,-5.20
2006,11,29,05,08,-5.20
2006,11,29,05,09,-5.20
2006,11,29,05,10,-5.20
2006,11,29,05,11,-5.20
2006,11,29,05,12,-5.10
2006,11,29,05,13,-5.10
2006,11,29,05,14,-5.10
2006,11,29,05,15,-5.10
2006,11,29,05,16,-5.10
2006,11,29,05,17,-5.10
2006,11,29,05,18,-5.10
2006,11,29,05,19,-5.10
2006,11,29,05,20,-5.10
2006,11,29,05,21,-5.10
2006,11,29,05,22,-5.10
2006,11,29,05,23,-5.10
2006,11,29,05,24,-5.10
2006,11,29,05,25,-5.10
2006,11,29,05,26,-5.10
2006,11,29,05,27,-5.10
2006,11,29,05,28,-5.10
2006,11,29,05,29,-5.10
2006,11,29,05,30,-5.10
2006,11,29,05,31,-5.00
2006,11,29,05,32,-5.10
2006,11,29,05,33,-5.00
2006,11,29,05,34,-5.00
2006,11,29,05,35,-5.10
2006,11,29,05,36,-5.10
2006,11,29,05,37,-5.10
2006,11,29,05,38,-5.10
2006,11,29,05,39,-5.10
2006,11,29,05,40,-5.10
2006,11,29,05,41,-5.10
2006,11,29,05,42,-5.10
2006,11,29,05,43,-5.00
2006,11,29,05,44,-5.00
2006,11,29,05,45,-5.10
2006,11,29,05,46,-5.10
2006,11,29,05,47,-5.10
2006,11,29,05,48,-5.10
2006,11,29,05,49,-5.10
2006,11,29,05,50,-5.10
2006,11,29,05,51,-5.10
2006,11,29,05,52,-5.10
2006,11,29,05,53,-5.10
2006,11,29,05,54,-5.10
2006,11,29,05,55,-5.10
2006,11,29,05,56,-5.10
2006,11,29,05,57,-5.10
2006,11,29,05,58,-5.10
2006,11,29,05,59,-5.10
2006,11,29,06,00,-5.10
2006,11,29,06,01,-5.00
2006,11,29,06,02,-5.00
2006,11,29,06,03,-5.00
2006,11,29,06,04,-5.00
2006,11,29,06,05,-5.00
2006,11,29,06,06,-5.00
2006,11,29,06,07,-5.00
2006,11,29,06,08,-5.00
2006,11,29,06,09,-5.00
2006,11,29,06,10,-5.00
2006,11,29,06,11,-5.00
2006,11,29,06,12,-5.00
2006,11,29,06,13,-5.00
2006,11,29,06,14,-5.00
2006,11,29,06,15,-5.00
2006,11,29,06,16,-5.00
2006,11,29,06,17,-5.00
2006,11,29,06,18,-5.00
2006,11,29,06,19,-5.00
2006,11,29,06,20,-5.00
2006,11,29,06,21,-5.00
2006,11,29,06,22,-5.00
2006,11,29,06,23,-5.00
2006,11,29,06,24,-5.00
2006,11,29,06,25,-5.00
2006,11,29,06,26,-5.00
2006,11,29,06,27,-5.00
2006,11,29,06,28,-5.00
2006,11,29,06,29,-5.00
2006,11,29,06,30,-5.00
2006,11,29,06,31,-5.00
2006,11,29,06,32,-5.00
2006,11,29,06,33,-5.00
2006,11,29,06,34,-5.00
2006,11,29,06,35,-4.90
2006,11,29,06,36,-4.90
2006,11,29,06,37,-4.90
2006,11,29,06,38,-4.90
2006,11,29,06,39,-4.90
2006,11,29,06,40,-4.90
2006,11,29,06,41,-4.90
2006,11,29,06,42,-4.90
2006,11,29,06,43,-4.90
2006,11,29,06,44,-4.90
2006,11,29,06,45,-4.90
2006,11,29,06,46,-4.90
2006,11,29,06,47,-4.90
2006,11,29,06,48,-4.90
2006,11,29,06,49,-4.90
2006,11,29,06,50,-4.90
2006,11,29,06,51,-4.90
2006,11,29,06,52,-4.90
2006,11,29,06,53,-4.90
2006,11,29,06,54,-4.90
2006,11,29,06,55,-4.90
2006,11,29,06,56,-4.90
2006,11,29,06,57,-4.80
2006,11,29,06,58,-4.80
2006,11,29,06,59,-4.80
2006,11,29,07,00,-4.80
2006,11,29,07,01,-4.80
2006,11,29,07,02,-4.80
2006,11,29,07,03,-4.80
2006,11,29,07,04,-4.80
2006,11,29,07,05,-4.80
2006,11,29,07,06,-4.80
2006,11,29,07,07,-4.80
2006,11,29,07,08,-4.80
2006,11,29,07,09,-4.80
2006,11,29,07,10,-4.80
2006,11,29,07,11,-4.80
2006,11,29,07,12,-4.80
2006,11,29,07,13,-4.80
2006,11,29,07,14,-4.80
2006,11,29,07,15,-4.80
2006,11,29,07,16,-4.80
2006,11,29,07,17,-4.80
2006,11,29,07,18,-4.80
2006,11,29,07,19,-4.80
2006,11,29,07,20,-4.80
2006,11,29,07,21,-4.80
2006,11,29,07,22,-4.80
2006,11,29,07,23,-4.80
2006,11,29,07,24,-4.80
2006,11,29,07,25,-4.80
2006,11,29,07,26,-4.80
2006,11,29,07,27,-4.80
2006,11,29,07,28,-4.80
2006,11,29,07,29,-4.80
2006,11,29,07,30,-4.70
2006,11,29,07,31,-4.70
2006,11,29,07,32,-4.70
2006,11,29,07,33,-4.70
2006,11,29,07,34,-4.70
2006,11,29,07,35,-4.70
2006,11,29,07,36,-4.70
2006,11,29,07,37,-4.70
2006,11,29,07,38,-4.70
2006,11,29,07,39,-4.70
2006,11,29,07,40,-4.70
2006,11,29,07,41,-4.70
2006,11,29,07,42,-4.70
2006,11,29,07,43,-4.70
2006,11,29,07,44,-4.70
2006,11,29,07,45,-4.70
2006,11,29,07,46,-4.70
2006,11,29,07,47,-4.70
2006,11,29,07,48,-4.70
2006,11,29,07,49,-4.70
2006,11,29,07,50,-4.70
2006,11,29,07,51,-4.70
2006,11,29,07,52,-4.70
2006,11,29,07,53,-4.70
2006,11,29,07,54,-4.70
2006,11,29,07,55,-4.70
2006,11,29,07,56,-4.70
2006,11,29,07,57,-4.60
2006,11,29,07,58,-4.60
2006,11,29,07,59,-4.60
2006,11,29,08,00,-4.60
2006,11,29,08,01,-4.60
2006,11,29,08,02,-4.60
2006,11,29,08,03,-4.60
2006,11,29,08,04,-4.50
2006,11,29,08,05,-4.50
2006,11,29,08,06,-4.50
2006,11,29,08,07,-4.50
2006,11,29,08,08,-4.50
2006,11,29,08,09,-4.50
2006,11,29,08,10,-4.50
2006,11,29,08,11,-4.50
2006,11,29,08,12,-4.50
2006,11,29,08,13,-4.50
2006,11,29,08,14,-4.50
2006,11,29,08,15,-4.50
2006,11,29,08,16,-4.50
2006,11,29,08,17,-4.50
2006,11,29,08,18,-4.50
2006,11,29,08,19,-4.50
2006,11,29,08,20,-4.50
2006,11,29,08,21,-4.50
2006,11,29,08,22,-4.50
2006,11,29,08,23,-4.50
2006,11,29,08,24,-4.50
2006,11,29,08,25,-4.50
2006,11,29,08,26,-4.50
2006,11,29,08,27,-4.50
2006,11,29,08,28,-4.50
2006,11,29,08,29,-4.50
2006,11,29,08,30,-4.50
2006,11,29,08,31,-4.50
2006,11,29,08,32,-4.50
2006,11,29,08,33,-4.50
2006,11,29,08,34,-4.40
2006,11,29,08,35,-4.40
2006,11,29,08,36,-4.40
2006,11,29,08,37,-4.40
2006,11,29,08,38,-4.40
2006,11,29,08,39,-4.40
2006,11,29,08,40,-4.40
2006,11,29,08,41,-4.40
2006,11,29,08,42,-4.40
2006,11,29,08,43,-4.40
2006,11,29,08,44,-4.40
2006,11,29,08,45,-4.40
2006,11,29,08,46,-4.40
2006,11,29,08,47,-4.40
2006,11,29,08,48,-4.40
2006,11,29,08,49,-4.40
2006,11,29,08,50,-4.40
2006,11,29,08,51,-4.40
2006,11,29,08,52,-4.40
2006,11,29,08,53,-4.40
2006,11,29,08,54,-4.30
2006,11,29,08,55,-4.30
2006,11,29,08,56,-4.30
2006,11,29,08,57,-4.30
2006,11,29,08,58,-4.30
2006,11,29,08,59,-4.30
2006,11,29,09,00,-4.30
2006,11,29,09,01,-4.30
2006,11,29,09,02,-4.30
2006,11,29,09,03,-4.30
2006,11,29,09,04,-4.30
2006,11,29,09,05,-4.30
2006,11,29,09,06,-4.30
2006,11,29,09,07,-4.20
2006,11,29,09,08,-4.20
2006,11,29,09,09,-4.20
2006,11,29,09,10,-4.20
2006,11,29,09,11,-4.20
2006,11,29,09,12,-4.20
2006,11,29,09,13,-4.20
2006,11,29,09,14,-4.20
2006,11,29,09,15,-4.20
2006,11,29,09,16,-4.20
2006,11,29,09,17,-4.20
2006,11,29,09,18,-4.20
2006,11,29,09,19,-4.20
2006,11,29,09,20,-4.20
2006,11,29,09,21,-4.20
2006,11,29,09,22,-4.20
2006,11,29,09,23,-4.20
2006,11,29,09,24,-4.20
2006,11,29,09,25,-4.20
2006,11,29,09,26,-4.20
2006,11,29,09,27,-4.20
2006,11,29,09,28,-4.10
2006,11,29,09,29,-4.10
2006,11,29,09,30,-4.10
2006,11,29,09,31,-4.10
2006,11,29,09,32,-4.10
2006,11,29,09,33,-4.10
2006,11,29,09,34,-4.10
2006,11,29,09,35,-4.10
2006,11,29,09,36,-4.10
2006,11,29,09,37,-4.10
2006,11,29,09,38,-4.00
2006,11,29,09,39,-4.00
2006,11,29,09,40,-4.00
2006,11,29,09,41,-4.00
2006,11,29,09,42,-4.00
2006,11,29,09,43,-4.00
2006,11,29,09,44,-4.00
2006,11,29,09,45,-4.00
2006,11,29,09,46,-4.00
2006,11,29,09,47,-4.00
2006,11,29,09,48,-4.00
2006,11,29,09,49,-3.90
2006,11,29,09,50,-3.90
2006,11,29,09,51,-3.90
2006,11,29,09,52,-3.90
2006,11,29,09,53,-3.90
2006,11,29,09,54,-3.90
2006,11,29,09,55,-3.90
2006,11,29,09,56,-3.80
2006,11,29,09,57,-3.80
2006,11,29,09,58,-3.80
2006,11,29,09,59,-3.80
2006,11,29,10,00,-3.80
2006,11,29,10,01,-3.80
2006,11,29,10,02,-3.80
2006,11,29,10,03,-3.80
2006,11,29,10,04,-3.70
2006,11,29,10,05,-3.70
2006,11,29,10,06,-3.70
2006,11,29,10,07,-3.70
2006,11,29,10,08,-3.70
2006,11,29,10,09,-3.70
2006,11,29,10,10,-3.70
2006,11,29,10,11,-3.70
2006,11,29,10,12,-3.70
2006,11,29,10,13,-3.70
2006,11,29,10,14,-3.70
2006,11,29,10,15,-3.70
2006,11,29,10,16,-3.70
2006,11,29,10,17,-3.70
2006,11,29,10,18,-3.60
2006,11,29,10,19,-3.60
2006,11,29,10,20,-3.60
2006,11,29,10,21,-3.60
2006,11,29,10,22,-3.50
2006,11,29,10,23,-3.50
2006,11,29,10,24,-3.50
2006,11,29,10,25,-3.50
2006,11,29,10,26,-3.50
2006,11,29,10,27,-3.40
2006,11,29,10,28,-3.40
2006,11,29,10,29,-3.40
2006,11,29,10,30,-3.40
2006,11,29,10,31,-3.40
2006,11,29,10,32,-3.40
2006,11,29,10,33,-3.40
2006,11,29,10,34,-3.30
2006,11,29,10,35,-3.30
2006,11,29,10,36,-3.30
2006,11,29,10,37,-3.30
2006,11,29,10,38,-3.30
2006,11,29,10,39,-3.30
2006,11,29,10,40,-3.30
2006,11,29,10,41,-3.30
2006,11,29,10,42,-3.30
2006,11,29,10,43,-3.30
2006,11,29,10,44,-3.30
2006,11,29,10,45,-3.30
2006,11,29,10,46,-3.30
2006,11,29,10,47,-3.30
2006,11,29,10,48,-3.30
2006,11,29,10,49,-3.20
2006,11,29,10,50,-3.20
2006,11,29,10,51,-3.20
2006,11,29,10,52,-3.20
2006,11,29,10,53,-3.20
2006,11,29,10,54,-3.20
2006,11,29,10,55,-3.10
2006,11,29,10,56,-3.10
2006,11,29,10,57,-3.10
2006,11,29,10,58,-3.00
2006,11,29,10,59,-3.00
2006,11,29,11,00,-3.00
2006,11,29,11,01,-3.00
2006,11,29,11,02,-3.00
2006,11,29,11,03,-3.00
2006,11,29,11,04,-3.00
2006,11,29,11,05,-3.00
2006,11,29,11,06,-3.00
2006,11,29,11,07,-3.00
2006,11,29,11,08,-2.90
2006,11,29,11,09,-2.90
2006,11,29,11,10,-2.90
2006,11,29,11,11,-2.90
2006,11,29,11,12,-2.90
2006,11,29,11,13,-2.80
2006,11,29,11,14,-2.80
2006,11,29,11,15,-2.70
2006,11,29,11,16,-2.70
2006,11,29,11,17,-2.70
2006,11,29,11,18,-2.60
2006,11,29,11,19,-2.60
2006,11,29,11,20,-2.60
2006,11,29,11,21,-2.60
2006,11,29,11,22,-2.60
2006,11,29,11,23,-2.60
2006,11,29,11,24,-2.60
2006,11,29,11,25,-2.50
2006,11,29,11,26,-2.50
2006,11,29,11,27,-2.50
2006,11,29,11,28,-2.50
2006,11,29,11,29,-2.60
2006,11,29,11,30,-2.60
2006,11,29,11,31,-2.60
2006,11,29,11,32,-2.60
2006,11,29,11,33,-2.60
2006,11,29,11,34,-2.60
2006,11,29,11,35,-2.60
2006,11,29,11,36,-2.60
2006,11,29,11,37,-2.60
2006,11,29,11,38,-2.70
2006,11,29,11,39,-2.70
2006,11,29,11,40,-2.70
2006,11,29,11,41,-2.70
2006,11,29,11,42,-2.70
2006,11,29,11,43,-2.70
2006,11,29,11,44,-2.70
2006,11,29,11,45,-2.70
2006,11,29,11,46,-2.70
2006,11,29,11,47,-2.70
2006,11,29,11,48,-2.70
2006,11,29,11,49,-2.70
2006,11,29,11,50,-2.70
2006,11,29,11,51,-2.70
2006,11,29,11,52,-2.70
2006,11,29,11,53,-2.60
2006,11,29,11,54,-2.60
2006,11,29,11,55,-2.60
2006,11,29,11,56,-2.70
2006,11,29,11,57,-2.70
2006,11,29,11,58,-2.70
2006,11,29,11,59,-2.70
2006,11,29,12,00,-2.70
2006,11,29,12,01,-2.70
2006,11,29,12,02,-2.60
2006,11,29,12,03,-2.60
2006,11,29,12,04,-2.60
2006,11,29,12,05,-2.70
2006,11,29,12,06,-2.70
2006,11,29,12,07,-2.70
2006,11,29,12,08,-2.70
2006,11,29,12,09,-2.60
2006,11,29,12,10,-2.60
2006,11,29,12,11,-2.60
2006,11,29,12,12,-2.70
2006,11,29,12,13,-2.70
2006,11,29,12,14,-2.70
2006,11,29,12,15,-2.70
2006,11,29,12,16,-2.60
2006,11,29,12,17,-2.60
2006,11,29,12,18,-2.60
2006,11,29,12,19,-2.60
2006,11,29,12,20,-2.60
2006,11,29,12,21,-2.60
2006,11,29,12,22,-2.60
2006,11,29,12,23,-2.60
2006,11,29,12,24,-2.70
2006,11,29,12,25,-2.70
2006,11,29,12,26,-2.70
2006,11,29,12,27,-2.70
2006,11,29,12,28,-2.60
2006,11,29,12,29,-2.60
2006,11,29,12,30,-2.60
2006,11,29,12,31,-2.60
2006,11,29,12,32,-2.60
2006,11,29,12,33,-2.60
2006,11,29,12,34,-2.60
2006,11,29,12,35,-2.60
2006,11,29,12,36,-2.60
2006,11,29,12,37,-2.60
2006,11,29,12,38,-2.60
2006,11,29,12,39,-2.60
2006,11,29,12,40,-2.60
2006,11,29,12,41,-2.60
2006,11,29,12,42,-2.60
2006,11,29,12,43,-2.60
2006,11,29,12,44,-2.60
2006,11,29,12,45,-2.60
2006,11,29,12,46,-2.50
2006,11,29,12,47,-2.50
2006,11,29,12,48,-2.50
2006,11,29,12,49,-2.50
2006,11,29,12,50,-2.50
2006,11,29,12,51,-2.50
2006,11,29,12,52,-2.50
2006,11,29,12,53,-2.50
2006,11,29,12,54,-2.40
2006,11,29,12,55,-2.40
2006,11,29,12,56,-2.40
2006,11,29,12,57,-2.40
2006,11,29,12,58,-2.40
2006,11,29,12,59,-2.40
2006,11,29,13,00,-2.40
2006,11,29,13,01,-2.40
2006,11,29,13,02,-2.40
2006,11,29,13,03,-2.40
2006,11,29,13,04,-2.40
2006,11,29,13,05,-2.50
2006,11,29,13,06,-2.50
2006,11,29,13,07,-2.50
2006,11,29,13,08,-2.50
2006,11,29,13,09,-2.50
2006,11,29,13,10,-2.40
2006,11,29,13,11,-2.40
2006,11,29,13,12,-2.40
2006,11,29,13,13,-2.40
2006,11,29,13,14,-2.40
2006,11,29,13,15,-2.40
2006,11,29,13,16,-2.40
2006,11,29,13,17,-2.40
2006,11,29,13,18,-2.40
2006,11,29,13,19,-2.40
2006,11,29,13,20,-2.40
2006,11,29,13,21,-2.40
2006,11,29,13,22,-2.40
2006,11,29,13,23,-2.40
2006,11,29,13,24,-2.40
2006,11,29,13,25,-2.40
2006,11,29,13,26,-2.30
2006,11,29,13,27,-2.30
2006,11,29,13,28,-2.30
2006,11,29,13,29,-2.30
2006,11,29,13,30,-2.30
2006,11,29,13,31,-2.30
2006,11,29,13,32,-2.30
2006,11,29,13,33,-2.30
2006,11,29,13,34,-2.30
2006,11,29,13,35,-2.30
2006,11,29,13,36,-2.30
2006,11,29,13,37,-2.30
2006,11,29,13,38,-2.30
2006,11,29,13,39,-2.30
2006,11,29,13,40,-2.30
2006,11,29,13,41,-2.30
2006,11,29,13,42,-2.30
2006,11,29,13,43,-2.30
2006,11,29,13,44,-2.30
2006,11,29,13,45,-2.30
2006,11,29,13,46,-2.30
2006,11,29,13,47,-2.30
2006,11,29,13,48,-2.30
2006,11,29,13,49,-2.20
2006,11,29,13,50,-2.20
2006,11,29,13,51,-2.20
2006,11,29,13,52,-2.20
2006,11,29,13,53,-2.20
2006,11,29,13,54,-2.10
2006,11,29,13,55,-2.10
2006,11,29,13,56,-2.10
2006,11,29,13,57,-2.10
2006,11,29,13,58,-2.10
2006,11,29,13,59,-2.10
2006,11,29,14,00,-2.00
2006,11,29,14,01,-2.00
2006,11,29,14,02,-2.00
2006,11,29,14,03,-2.00
2006,11,29,14,04,-2.00
2006,11,29,14,05,-2.00
2006,11,29,14,06,-2.00
2006,11,29,14,07,-1.90
2006,11,29,14,08,-1.90
2006,11,29,14,09,-1.90
2006,11,29,14,10,-1.90
2006,11,29,14,11,-1.80
2006,11,29,14,12,-1.80
2006,11,29,14,13,-1.80
2006,11,29,14,14,-1.80
2006,11,29,14,15,-1.80
2006,11,29,14,16,-1.80
2006,11,29,14,17,-1.80
2006,11,29,14,18,-1.80
2006,11,29,14,19,-1.80
2006,11,29,14,20,-1.70
2006,11,29,14,21,-1.70
2006,11,29,14,22,-1.70
2006,11,29,14,23,-1.70
2006,11,29,14,24,-1.70
2006,11,29,14,25,-1.70
2006,11,29,14,26,-1.70
2006,11,29,14,27,-1.70
2006,11,29,14,28,-1.60
2006,11,29,14,29,-1.60
2006,11,29,14,30,-1.60
2006,11,29,14,31,-1.60
2006,11,29,14,32,-1.60
2006,11,29,14,33,-1.50
2006,11,29,14,34,-1.50
2006,11,29,14,35,-1.50
2006,11,29,14,36,-1.40
2006,11,29,14,37,-1.40
2006,11,29,14,38,-1.40
2006,11,29,14,39,-1.40
2006,11,29,14,40,-1.30
2006,11,29,14,41,-1.30
2006,11,29,14,42,-1.30
2006,11,29,14,43,-1.20
2006,11,29,14,44,-1.20
2006,11,29,14,45,-1.10
2006,11,29,14,46,-1.10
2006,11,29,14,47,-1.00
2006,11,29,14,48,-0.90
2006,11,29,14,49,-0.90
2006,11,29,14,50,-0.80
2006,11,29,14,51,-0.70
2006,11,29,14,52,-0.70
2006,11,29,14,53,-0.70
2006,11,29,14,54,-0.60
2006,11,29,14,55,-0.60
2006,11,29,14,56,-0.60
2006,11,29,14,57,-0.60
2006,11,29,14,58,-0.60
2006,11,29,14,59,-0.60
2006,11,29,15,00,-0.40
2006,11,29,15,01,-0.40
2006,11,29,15,02,-0.40
2006,11,29,15,03,-0.40
2006,11,29,15,04,-0.40
2006,11,29,15,05,-0.40
2006,11,29,15,06,-0.40
2006,11,29,15,07,-0.40
2006,11,29,15,08,-0.40
2006,11,29,15,09,-0.40
2006,11,29,15,10,-0.40
2006,11,29,15,11,-0.40
2006,11,29,15,12,-0.40
2006,11,29,15,13,-0.40
2006,11,29,15,14,-0.30
2006,11,29,15,15,-0.30
2006,11,29,15,16,-0.30
2006,11,29,15,17,-0.30
2006,11,29,15,18,-0.30
2006,11,29,15,19,-0.30
2006,11,29,15,20,-0.30
2006,11,29,15,21,-0.30
2006,11,29,15,22,-0.30
2006,11,29,15,23,-0.30
2006,11,29,15,24,-0.30
2006,11,29,15,25,-0.30
2006,11,29,15,26,-0.30
2006,11,29,15,27,-0.20
2006,11,29,15,28,-0.20
2006,11,29,15,29,-0.20
2006,11,29,15,30,-0.10
2006,11,29,15,31,-0.10
2006,11,29,15,32,-0.10
2006,11,29,15,33,-0.10
2006,11,29,15,34,-0.10
2006,11,29,15,35,-0.10
2006,11,29,15,36,-0.10
2006,11,29,15,37,-0.10
2006,11,29,15,38,-0.10
2006,11,29,15,39,-0.10
2006,11,29,15,40,-0.10
2006,11,29,15,41,-0.10
2006,11,29,15,42,-0.10
2006,11,29,15,43,-0.10
2006,11,29,15,44,-0.10
2006,11,29,15,45,-0.10
2006,11,29,15,46,-0.10
2006,11,29,15,47,-0.10
2006,11,29,15,48,-0.10
2006,11,29,15,49,0.00
2006,11,29,15,50,0.10
2006,11,29,15,51,0.10
2006,11,29,15,52,0.10
2006,11,29,15,53,0.10
2006,11,29,15,54,0.20
2006,11,29,15,55,0.20
2006,11,29,15,56,0.20
2006,11,29,15,57,0.30
2006,11,29,15,58,0.30
2006,11,29,15,59,0.30
2006,11,29,16,00,0.40
2006,11,29,16,01,0.40
2006,11,29,16,02,0.40
2006,11,29,16,03,0.40
2006,11,29,16,04,0.40
2006,11,29,16,05,0.40
2006,11,29,16,06,0.40
2006,11,29,16,07,0.40
2006,11,29,16,08,0.50
2006,11,29,16,09,0.50
2006,11,29,16,10,0.50
2006,11,29,16,11,0.60
2006,11,29,16,12,0.60
2006,11,29,16,13,0.70
2006,11,29,16,14,0.70
2006,11,29,16,15,0.70
2006,11,29,16,16,0.70
2006,11,29,16,17,0.80
2006,11,29,16,18,0.80
2006,11,29,16,19,0.80
2006,11,29,16,20,0.80
2006,11,29,16,21,0.80
2006,11,29,16,22,0.80
2006,11,29,16,23,0.80
2006,11,29,16,24,0.80
2006,11,29,16,25,0.80
2006,11,29,16,26,0.80
2006,11,29,16,27,0.80
2006,11,29,16,28,0.80
2006,11,29,16,29,0.80
2006,11,29,16,30,0.80
2006,11,29,16,31,0.80
2006,11,29,16,32,0.80
2006,11,29,16,33,0.80
2006,11,29,16,34,0.80
2006,11,29,16,35,0.80
2006,11,29,16,36,0.80
2006,11,29,16,37,0.80
2006,11,29,16,38,0.80
2006,11,29,16,39,0.80
2006,11,29,16,40,0.80
2006,11,29,16,41,0.80
2006,11,29,16,42,0.80
2006,11,29,16,43,0.80
2006,11,29,16,44,0.80
2006,11,29,16,45,0.80
2006,11,29,16,46,0.80
2006,11,29,16,47,0.80
2006,11,29,16,48,0.80
2006,11,29,16,49,0.80
2006,11,29,16,50,0.80
2006,11,29,16,51,0.80
2006,11,29,16,52,0.80
2006,11,29,16,53,0.90
2006,11,29,16,54,0.90
2006,11,29,16,55,1.00
2006,11,29,16,56,1.00
2006,11,29,16,57,1.00
2006,11,29,16,58,1.10
2006,11,29,16,59,1.10
2006,11,29,17,00,1.10
2006,11,29,17,01,1.10
2006,11,29,17,02,1.20
2006,11,29,17,03,1.20
2006,11,29,17,04,1.20
2006,11,29,17,05,1.20
2006,11,29,17,06,1.20
2006,11,29,17,07,1.20
2006,11,29,17,08,1.20
2006,11,29,17,09,1.20
2006,11,29,17,10,1.20
2006,11,29,17,11,1.20
2006,11,29,17,12,1.20
2006,11,29,17,13,1.20
2006,11,29,17,14,1.20
2006,11,29,17,15,1.30
2006,11,29,17,16,1.30
2006,11,29,17,17,1.20
2006,11,29,17,18,1.20
2006,11,29,17,19,1.20
2006,11,29,17,20,1.20
2006,11,29,17,21,1.20
2006,11,29,17,22,1.20
2006,11,29,17,23,1.20